Location: Casilda
(33.0440°S, 61.1680°W)
Time: 01:29:22
(UTC-03:00)

ISS - Pass Details

Date: 20 February 2020
Orbit: 415 x 423 km, 51.6° (Epoch: 27 February)

Event Time Altitude Azimuth Distance (km) Brightness Sun altitude
Rises 20:29:30 0° 267° (W) 2,377 1.8 -8.6°
Reaches altitude 10° 20:32:37 10° 236° (SW) 1,516 0.5 -9.2°
Maximum altitude 20:34:08 12° 209° (SSW) 1,378 -0.4 -9.5°
Drops below altitude 10° 20:35:40 10° 183° (S) 1,520 -0.6 -9.8°
Sets 20:38:49 0° 151° (SSE) 2,389 0.0 -10.4°
